Location: Unspecified
(0.0000°N, 0.0000°E)
Time: 14:40:59
(UTC+02:00)

GPS 2-12 Rocket1 - Visible Passes

Search period start: 25 April 2018 00:00
Search period end: 05 May 2018 00:00
Orbit: 587 x 653 km, 20.0° (Epoch: 24 April)

Date Brightness Start Highest point End Pass type
(mag) Time Alt. Az. Time Alt. Az. Time Alt. Az.
25 Apr 2.9 06:55:25 26° WSW 06:57:51 87° NNW 07:02:20 10° ENE visible
25 Apr 4.9 20:46:02 10° WSW 20:49:40 21° SSW 20:53:14 10° SSE visible
26 Apr 5.6 05:33:35 17° E 05:33:35 17° E 05:34:45 10° E visible
26 Apr 3.5 07:10:36 16° W 07:13:57 48° NNW 07:18:16 10° NE visible
26 Apr 5.4 21:03:23 10° SW 21:05:57 14° SSW 21:08:22 10° SSE visible
27 Apr 4.7 05:48:45 30° ENE 05:48:45 30° ENE 05:51:03 10° ENE visible
27 Apr 4.3 07:26:18 10° W 07:30:06 28° NNW 07:33:56 10° NE visible
28 Apr 4.0 06:03:53 41° NNE 06:03:53 41° NNE 06:07:03 10° ENE visible
29 Apr 4.1 06:18:59 31° NNW 06:18:59 31° NNW 06:22:47 10° NE visible
30 Apr 4.8 06:34:04 18° NW 06:35:03 19° NNW 06:38:13 10° NNE visible
01 May 5.3 06:49:29 10° NW 06:51:20 12° NNW 06:53:11 10° N visible
02 May 6.0 05:27:07 10° NNE 05:27:07 10° NNE 05:27:10 10° NNE visible
03 May 5.8 05:42:06 11° NNE 05:42:06 11° NNE 05:42:18 10° NNE visible
